Loading…
Loading…
Loading…
Loading…
Loading parcel record…
Hamilton, NJ·Mercer County
Owner email, phone, and authorized agent are available on Pro.
Activity captured from the county clerk's daily feed. Includes deeds, mortgages, and other recorded filings.
| Date | Type | Grantor | Grantee | Book / Page | Instrument |
|---|---|---|---|---|---|
| 2025-10-31 | MORTGAGE | — | — | 11993 / 1585 | 2025038639 |
| 2025-10-31 | DEED | — | — | 6607 / 695 | 2025038638 |
| 2024-05-06 | DEED | — |
| — |
| 6555 / 1679 |
| 2024015991 |
| 2023-09-18 | MORTGAGE | — | — | 11831 / 1975 | 2023031846 |
| 2023-09-18 | DEED | — | — | 6534 / 1748 | 2023031845 |
| 2022-08-05 | DEED | — | — | 6495 / 636 | 2022037483 |
| 2022-04-05 | DEED | — | — | 6480 / 1363 | 2022017686 |
| 2020-09-08 | MORTGAGE | — | — | 11516 / 1342 | 2020037686 |
| 2020-09-08 | DEED | — | — | 6412 / 1797 | 2020037685 |
| 2020-07-21 | DEED | — | — | 6408 / 1882 | 2020030364 |
| 2019-10-15 | DEED | — | — | 6384 / 277 | 2019044625 |
| 2019-10-15 | DISCHARGE OF MORTGAGE | — | — | 1584 / 828 | 2019044624 |
| 2019-10-15 | ASSIGNMENT OF MORTGAGES | — | — | 1192 / 1274 | 2019044623 |
| 2019-07-10 | MORTGAGE | — | — | 11418 / 1708 | 2019028619 |
| 2019-07-10 | DEED | — | — | 6373 / 820 | 2019028618 |
| 2019-01-25 | NOTICE OF LIS PENDENS | — | — | 426 / 1486 | 2019003645 |
| 2019-01-24 | DEED | — | — | 6356 / 192 | 2019003391 |
| 2017-02-24 | SECURED TRANSACTION | — | — | 225 / 1818 | 2017009473 |
| 2016-11-09 | DEED | — | — | 6267 / 1349 | 2016052717 |
| 2016-08-24 | DEED | — | — | 6259 / 1585 | 2016039298 |
| 2016-03-18 | DEED | — | — | 6244 / 627 | 2016013837 |
| 2016-03-01 | DEED | — | — | 6242 / 1594 | 2016010707 |
| 2015-12-01 | DEED | — | — | 6234 / 1991 | 2015053373 |
| 2015-10-09 | DEED | — | — | 6230 / 1674 | 2015046426 |
| 2015-02-20 | NOTICE OF LIS PENDENS | — | — | 411 / 400 | 2015006988 |
| 2013-10-08 | DEED | — | — | 6180 / 686 | 2013057230 |
| 2013-08-29 | DEED | — | — | 6177 / 1072 | 2013049504 |
| 2013-01-14 | NOTICE OF LIS PENDENS | — | — | 402 / 127 | 2013002604 |
| 2012-03-08 | TAX SALE CERTIFICATE | — | — | 10867 / 239 | 2012010399 |
| 2011-08-26 | TAX SALE CERTIFICATE | — | — | 10751 / 497 | 2011025101 |